contact:dominique.lefevre@mio.osupytheas.fr, maurice.libes@osupytheas.fr, didier.mallarino@osupytheas.fr
Project:EMSO http://www.emso-fr.org/EMSO-France
Depth: 2436.0 m
Title:EMSO Ligure Ouest : Data MII capteur AQUADOPP
Date,Latitude,Longitude,X_East,Y_North,Z_Up,Amplitude_X,Amplitude_Y,Amplitude_Z,Batterie,SoundSpeed,Heading,Pitch,Roll,Pressure,TIS,Speed,Direction
, degrees North, degrees East, m.s-1, m.s-1,m.s-1, 1, 1, 1, Volt, m.s-1, degree, degree, degree, dbar, degree_C, m.s-1, degree
2020-01-02T00:04:03,42.805,6.029,-0.035,0.02,0.0,105.0,111.0,103.0,13.4,1505.3,325.2,-0.7,1.8,2470.289,13.31,0.04,299.7
2020-01-02T00:07:03,42.805,6.029,-0.036,-0.001,-0.004,106.0,109.0,102.0,13.4,1505.3,325.3,-0.7,1.8,2470.278,13.32,0.036,268.4
2020-01-02T00:10:03,42.805,6.029,-0.038,0.019,-0.017,105.0,111.0,102.0,13.4,1505.3,324.1,-0.7,1.8,2470.368,13.32,0.042,296.6
2020-01-02T00:13:03,42.805,6.029,-0.018,0.006,0.003,107.0,111.0,101.0,13.3,1505.3,326.4,-0.7,1.8,2470.317,13.33,0.018,288.4
2020-01-02T00:16:03,42.805,6.029,0.008,0.009,0.013,108.0,109.0,103.0,13.4,1505.3,326.3,-0.7,1.8,2470.28,13.33,0.012,41.6
2020-01-02T00:19:03,42.805,6.029,-0.011,0.027,-0.024,107.0,109.0,104.0,13.4,1505.3,323.8,-0.7,1.8,2470.258,13.33,0.029,337.8
2020-01-02T00:22:03,42.805,6.029,-0.013,0.016,-0.013,106.0,109.0,101.0,13.4,1505.3,323.6,-0.7,1.8,2470.294,13.33,0.02,320.9
2020-01-02T00:25:03,42.805,6.029,-0.026,0.032,0.005,104.0,109.0,102.0,13.3,1505.3,323.9,-0.7,1.9,2470.306,13.33,0.041,320.9
2020-01-02T00:28:03,42.805,6.029,-0.016,0.024,-0.013,106.0,110.0,103.0,13.4,1505.3,327.8,-0.7,1.8,2470.274,13.33,0.028,326.3
2020-01-02T00:34:03,42.805,6.029,-0.02,0.023,0.005,107.0,108.0,103.0,13.4,1505.3,328.2,-0.8,1.8,2470.311,13.31,0.03,319.0
2020-01-02T00:37:03,42.805,6.029,-0.018,0.033,-0.031,107.0,109.0,102.0,13.4,1505.3,326.9,-0.7,1.8,2470.324,13.32,0.037,331.4
2020-01-02T00:40:03,42.805,6.029,-0.009,0.03,-0.022,106.0,111.0,103.0,13.4,1505.3,328.1,-0.7,1.8,2470.281,13.32,0.031,343.3
2020-01-02T00:43:03,42.805,6.029,-0.051,0.024,-0.043,107.0,110.0,102.0,13.3,1505.3,323.4,-0.7,1.8,2470.3,13.33,0.056,295.2
2020-01-02T00:46:03,42.805,6.029,0.018,0.028,-0.002,106.0,109.0,103.0,13.4,1505.3,325.1,-0.7,1.8,2470.316,13.33,0.033,32.7
2020-01-02T00:49:03,42.805,6.029,-0.01,0.042,-0.03,108.0,110.0,103.0,13.3,1505.3,327.2,-0.7,1.8,2470.243,13.33,0.043,346.6
2020-01-02T00:52:03,42.805,6.029,-0.033,0.016,-0.027,107.0,109.0,104.0,13.4,1505.3,323.4,-0.7,1.8,2470.293,13.33,0.036,295.9
2020-01-02T00:58:02,42.805,6.029,-0.025,0.037,-0.006,106.0,110.0,102.0,13.3,1505.3,327.8,-0.8,1.8,2470.331,13.31,0.044,326.0
2020-01-02T01:04:03,42.805,6.029,-0.011,0.01,-0.005,107.0,112.0,104.0,13.3,1505.2,327.0,-0.8,1.8,2470.328,13.3,0.014,312.3
2020-01-02T01:07:03,42.805,6.029,-0.011,0.014,0.019,106.0,108.0,102.0,13.4,1505.3,325.9,-0.7,1.8,2470.317,13.31,0.017,321.8
2020-01-02T01:10:03,42.805,6.029,-0.015,0.027,0.005,106.0,109.0,103.0,13.4,1505.3,326.5,-0.7,1.8,2470.302,13.32,0.03,330.9
2020-01-02T01:13:03,42.805,6.029,-0.018,0.016,0.003,107.0,109.0,102.0,13.3,1505.3,326.5,-0.7,1.8,2470.284,13.32,0.024,311.6
2020-01-02T01:16:03,42.805,6.029,0.002,0.004,-0.017,106.0,111.0,102.0,13.3,1505.3,326.8,-0.7,1.8,2470.268,13.33,0.004,26.6
2020-01-02T01:19:03,42.805,6.029,-0.005,0.009,0.003,107.0,110.0,103.0,13.4,1505.3,324.2,-0.7,1.8,2470.269,13.33,0.01,330.9
2020-01-02T01:22:03,42.805,6.029,0.011,0.026,0.021,106.0,110.0,103.0,13.4,1505.3,323.5,-0.7,1.8,2470.289,13.33,0.028,22.9
2020-01-02T01:25:03,42.805,6.029,-0.02,0.032,-0.011,106.0,109.0,103.0,13.4,1505.3,324.9,-0.8,1.8,2470.329,13.33,0.037,328.0
2020-01-02T01:28:03,42.805,6.029,0.003,0.01,0.003,106.0,108.0,102.0,13.4,1505.3,328.6,-0.7,1.8,2470.318,13.33,0.01,16.7
2020-01-02T01:31:03,42.805,6.029,-0.012,0.025,-0.019,107.0,110.0,101.0,13.4,1505.3,324.5,-0.7,1.8,2470.267,13.33,0.027,334.4
2020-01-02T01:34:03,42.805,6.029,-0.001,0.016,-0.026,105.0,110.0,101.0,13.3,1505.3,325.5,-0.7,1.9,2470.246,13.33,0.016,356.4
2020-01-02T01:37:03,42.805,6.029,-0.041,0.015,-0.012,107.0,108.0,103.0,13.4,1505.3,326.6,-0.7,1.9,2470.287,13.33,0.043,290.1
2020-01-02T01:40:03,42.805,6.029,0.002,0.019,-0.008,107.0,110.0,103.0,13.4,1505.3,327.0,-0.7,1.8,2470.293,13.33,0.019,6.0
2020-01-02T01:43:03,42.805,6.029,-0.023,0.02,-0.081,106.0,109.0,103.0,13.4,1505.3,326.8,-0.7,1.8,2470.249,13.33,0.03,311.0
2020-01-02T01:46:03,42.805,6.029,-0.003,0.032,-0.013,106.0,109.0,103.0,13.4,1505.3,323.7,-0.7,1.8,2470.29,13.33,0.032,354.6
2020-01-02T01:49:03,42.805,6.029,-0.032,0.007,-0.023,108.0,111.0,103.0,13.4,1505.3,325.4,-0.7,1.8,2470.261,13.33,0.032,282.3
2020-01-02T01:52:03,42.805,6.029,-0.004,0.04,0.015,106.0,108.0,103.0,13.4,1505.3,324.6,-0.7,1.8,2470.247,13.33,0.04,354.3
2020-01-02T01:55:03,42.805,6.029,-0.013,0.007,-0.016,106.0,110.0,102.0,13.4,1505.3,327.8,-0.7,1.9,2470.269,13.33,0.014,298.3
2020-01-02T01:58:03,42.805,6.029,-0.028,0.019,-0.014,108.0,110.0,105.0,13.4,1505.3,324.1,-0.7,1.8,2470.271,13.33,0.033,304.2
2020-01-02T02:04:03,42.805,6.029,-0.024,0.003,-0.028,106.0,110.0,103.0,13.4,1505.3,326.3,-0.7,1.8,2470.278,13.32,0.024,277.1
2020-01-02T02:07:03,42.805,6.029,-0.028,0.005,-0.037,106.0,110.0,104.0,13.4,1505.3,326.9,-0.8,1.8,2470.292,13.32,0.028,280.1
2020-01-02T02:10:03,42.805,6.029,0.004,0.026,0.007,106.0,110.0,101.0,13.4,1505.3,326.8,-0.7,1.8,2470.261,13.33,0.026,8.7
2020-01-02T02:13:03,42.805,6.029,-0.016,0.027,-0.033,106.0,110.0,102.0,13.4,1505.3,325.8,-0.7,1.8,2470.275,13.33,0.031,329.3
2020-01-02T02:16:03,42.805,6.029,-0.012,0.015,0.009,106.0,109.0,104.0,13.4,1505.3,323.3,-0.7,1.8,2470.305,13.33,0.019,321.3
2020-01-02T02:19:03,42.805,6.029,-0.004,0.016,0.0,105.0,110.0,105.0,13.4,1505.3,323.5,-0.7,1.9,2470.288,13.33,0.016,346.0
2020-01-02T02:22:03,42.805,6.029,-0.013,0.015,-0.003,106.0,111.0,101.0,13.4,1505.3,327.5,-0.7,1.8,2470.283,13.33,0.019,319.1
2020-01-02T02:25:03,42.805,6.029,-0.013,0.0,-0.036,105.0,108.0,104.0,13.3,1505.4,325.8,-0.7,1.8,2470.292,13.34,0.013,270.0
2020-01-02T02:28:03,42.805,6.029,-0.015,0.005,-0.014,108.0,110.0,102.0,13.3,1505.4,324.3,-0.7,1.9,2470.242,13.34,0.015,288.4
2020-01-02T02:31:03,42.805,6.029,-0.022,0.013,-0.024,107.0,110.0,102.0,13.4,1505.4,323.4,-0.7,1.8,2470.272,13.34,0.025,300.6
2020-01-02T02:34:03,42.805,6.029,0.012,-0.018,0.02,105.0,107.0,104.0,13.3,1505.4,323.5,-0.7,1.8,2470.294,13.34,0.021,146.3
2020-01-02T02:40:03,42.805,6.029,-0.004,0.017,-0.011,109.0,109.0,102.0,13.4,1505.3,325.6,-0.8,1.8,2470.291,13.32,0.017,346.8
2020-01-02T02:43:03,42.805,6.029,-0.001,0.019,-0.022,107.0,108.0,103.0,13.4,1505.3,326.5,-0.7,1.8,2470.264,13.32,0.019,357.0
2020-01-02T02:46:03,42.805,6.029,-0.003,0.0,-0.011,107.0,107.0,104.0,13.3,1505.3,328.1,-0.7,1.8,2470.224,13.33,0.003,270.0
2020-01-02T02:49:03,42.805,6.029,0.002,0.017,0.004,107.0,108.0,103.0,13.4,1505.3,325.4,-0.7,1.8,2470.267,13.33,0.017,6.7
2020-01-02T02:52:03,42.805,6.029,-0.001,0.003,0.003,107.0,110.0,103.0,13.3,1505.3,324.7,-0.7,1.8,2470.282,13.33,0.003,341.6
2020-01-02T02:55:03,42.805,6.029,0.002,0.003,0.021,106.0,109.0,103.0,13.4,1505.3,323.5,-0.7,1.9,2470.286,13.33,0.003,33.7
2020-01-02T02:58:03,42.805,6.029,0.012,0.004,0.004,106.0,110.0,102.0,13.4,1505.4,324.6,-0.7,1.8,2470.242,13.34,0.012,71.6
2020-01-02T03:04:03,42.805,6.029,-0.017,0.005,-0.018,109.0,110.0,103.0,13.4,1505.3,324.6,-0.7,1.8,2470.297,13.32,0.017,286.4
2020-01-02T03:07:03,42.805,6.029,0.007,0.02,0.006,106.0,110.0,104.0,13.4,1505.3,327.5,-0.7,1.8,2470.266,13.32,0.021,19.3
2020-01-02T03:10:03,42.805,6.029,-0.009,0.014,-0.035,108.0,110.0,105.0,13.3,1505.3,326.8,-0.7,1.8,2470.244,13.33,0.016,327.3
2020-01-02T03:13:03,42.805,6.029,-0.001,0.021,-0.021,106.0,112.0,103.0,13.4,1505.3,326.5,-0.7,1.8,2470.295,13.33,0.021,357.3
2020-01-02T03:16:03,42.805,6.029,-0.002,0.009,-0.014,107.0,108.0,103.0,13.4,1505.3,324.5,-0.7,1.9,2470.244,13.33,0.009,347.5
2020-01-02T03:19:03,42.805,6.029,0.016,0.025,-0.008,108.0,110.0,103.0,13.4,1505.3,326.9,-0.7,1.9,2470.237,13.33,0.029,32.6
2020-01-02T03:22:02,42.805,6.029,-0.022,0.008,0.017,107.0,110.0,103.0,13.3,1505.4,325.1,-0.7,1.8,2470.269,13.34,0.023,290.0
2020-01-02T03:25:03,42.805,6.029,0.026,-0.004,0.005,107.0,110.0,103.0,13.3,1505.4,324.7,-0.7,1.8,2470.258,13.34,0.026,98.7
2020-01-02T03:28:03,42.805,6.029,-0.004,0.005,-0.025,107.0,111.0,103.0,13.3,1505.4,326.6,-0.7,1.9,2470.243,13.34,0.006,321.3
2020-01-02T03:31:03,42.805,6.029,0.014,0.012,0.013,106.0,107.0,104.0,13.4,1505.4,325.3,-0.7,1.8,2470.264,13.34,0.018,49.4
2020-01-02T03:34:03,42.805,6.029,0.0,0.014,0.024,107.0,109.0,103.0,13.4,1505.4,327.4,-0.7,1.8,2470.261,13.34,0.014,0.0
2020-01-02T03:37:03,42.805,6.029,0.0,0.018,-0.017,106.0,107.0,105.0,13.3,1505.4,323.0,-0.7,1.8,2470.22,13.34,0.018,0.0
2020-01-02T03:40:03,42.805,6.029,-0.012,0.019,0.007,109.0,110.0,103.0,13.4,1505.4,326.8,-0.7,1.8,2470.259,13.34,0.022,327.7
2020-01-02T03:43:03,42.805,6.029,-0.019,0.0,-0.043,107.0,108.0,103.0,13.3,1505.4,325.0,-0.7,1.8,2470.237,13.34,0.019,270.0
2020-01-02T03:46:03,42.805,6.029,-0.011,0.011,-0.018,108.0,110.0,102.0,13.4,1505.4,327.9,-0.7,1.8,2470.225,13.34,0.015,315.0
2020-01-02T03:49:03,42.805,6.029,-0.018,-0.009,-0.048,108.0,108.0,105.0,13.4,1505.4,326.3,-0.7,1.8,2470.223,13.34,0.02,243.4
2020-01-02T03:55:02,42.805,6.029,-0.027,-0.002,-0.021,107.0,109.0,105.0,13.3,1505.3,324.9,-0.7,1.8,2470.261,13.32,0.027,265.8
2020-01-02T03:58:03,42.805,6.029,-0.014,-0.014,-0.024,110.0,111.0,104.0,13.4,1505.3,324.6,-0.7,1.8,2470.234,13.32,0.019,225.0
2020-01-02T04:04:03,42.805,6.029,0.005,-0.016,-0.034,106.0,109.0,106.0,13.4,1505.3,325.1,-0.7,1.8,2470.258,13.31,0.016,162.6
2020-01-02T04:07:03,42.805,6.029,0.01,0.019,-0.019,109.0,109.0,103.0,13.3,1505.3,325.9,-0.7,1.9,2470.295,13.32,0.021,27.8
2020-01-02T04:10:03,42.805,6.029,-0.024,-0.002,-0.012,107.0,110.0,105.0,13.4,1505.3,326.1,-0.8,1.9,2470.283,13.33,0.024,265.2
2020-01-02T04:13:03,42.805,6.029,-0.016,0.001,-0.012,108.0,109.0,104.0,13.3,1505.3,322.8,-0.8,1.8,2470.237,13.33,0.016,273.6
2020-01-02T04:16:03,42.805,6.029,0.014,-0.005,-0.019,107.0,110.0,104.0,13.3,1505.3,327.4,-0.7,1.8,2470.276,13.33,0.014,109.6
2020-01-02T04:19:03,42.805,6.029,-0.009,-0.007,-0.037,109.0,110.0,103.0,13.3,1505.3,327.3,-0.7,1.8,2470.273,13.33,0.011,232.1
2020-01-02T04:22:03,42.805,6.029,-0.003,-0.003,-0.007,108.0,109.0,104.0,13.4,1505.3,324.4,-0.7,1.8,2470.198,13.33,0.004,225.0
2020-01-02T04:25:03,42.805,6.029,-0.023,0.002,-0.033,109.0,108.0,103.0,13.4,1505.4,326.4,-0.7,1.8,2470.239,13.34,0.023,275.0
2020-01-02T04:28:03,42.805,6.029,-0.018,0.007,-0.033,109.0,108.0,103.0,13.4,1505.4,325.2,-0.7,1.8,2470.271,13.34,0.019,291.2
2020-01-02T04:31:03,42.805,6.029,0.006,-0.003,-0.046,109.0,111.0,104.0,13.4,1505.4,328.5,-0.7,1.8,2470.24,13.34,0.006,116.6
2020-01-02T04:34:03,42.805,6.029,-0.003,-0.031,-0.035,108.0,108.0,104.0,13.3,1505.4,325.3,-0.7,1.8,2470.229,13.34,0.031,185.5
2020-01-02T04:37:03,42.805,6.029,-0.017,-0.005,-0.024,108.0,109.0,104.0,13.3,1505.4,323.3,-0.7,1.9,2470.256,13.34,0.017,253.6
2020-01-02T04:40:03,42.805,6.029,-0.007,-0.009,-0.041,108.0,107.0,104.0,13.3,1505.4,326.6,-0.7,1.9,2470.226,13.34,0.011,217.9
2020-01-02T04:43:03,42.805,6.029,0.014,-0.007,0.008,107.0,108.0,105.0,13.3,1505.4,326.7,-0.7,1.8,2470.249,13.34,0.015,116.6
2020-01-02T04:46:03,42.805,6.029,-0.012,-0.013,-0.016,111.0,108.0,104.0,13.3,1505.4,327.3,-0.7,1.8,2470.237,13.34,0.017,222.7
2020-01-02T04:49:03,42.805,6.029,-0.002,-0.023,-0.017,108.0,107.0,106.0,13.4,1505.4,326.7,-0.7,1.9,2470.276,13.34,0.023,185.0
2020-01-02T04:52:03,42.805,6.029,-0.001,-0.019,-0.026,109.0,109.0,103.0,13.4,1505.3,328.7,-0.7,1.8,2470.248,13.33,0.019,183.0
2020-01-02T04:55:03,42.805,6.029,-0.015,-0.004,-0.014,108.0,108.0,104.0,13.4,1505.3,326.0,-0.7,1.8,2470.202,13.33,0.015,255.1
2020-01-02T04:58:03,42.805,6.029,-0.007,-0.024,-0.028,109.0,111.0,103.0,13.4,1505.3,325.2,-0.7,1.8,2470.22,13.33,0.025,196.3
2020-01-02T05:04:03,42.805,6.029,0.002,-0.02,-0.031,108.0,111.0,104.0,13.4,1505.3,325.8,-0.7,1.9,2470.279,13.31,0.02,174.3
2020-01-02T05:07:03,42.805,6.029,0.014,-0.002,-0.022,107.0,111.0,104.0,13.3,1505.3,323.4,-0.7,1.9,2470.275,13.32,0.014,98.1
2020-01-02T05:10:03,42.805,6.029,0.014,-0.008,-0.036,107.0,111.0,104.0,13.3,1505.3,325.4,-0.7,1.9,2470.275,13.32,0.016,119.7
2020-01-02T05:13:03,42.805,6.029,-0.006,0.0,-0.036,108.0,110.0,104.0,13.3,1505.3,325.8,-0.7,1.8,2470.261,13.32,0.006,270.0
2020-01-02T05:16:03,42.805,6.029,0.057,-0.011,0.013,107.0,110.0,103.0,13.4,1505.3,325.2,-0.7,1.8,2470.216,13.33,0.058,100.9
2020-01-02T05:19:03,42.805,6.029,-0.005,-0.026,-0.06,107.0,110.0,103.0,13.4,1505.3,325.2,-0.7,1.9,2470.311,13.33,0.026,190.9
2020-01-02T05:22:03,42.805,6.029,0.015,-0.007,-0.011,106.0,109.0,104.0,13.4,1505.3,327.2,-0.7,1.8,2470.188,13.33,0.016,115.0
2020-01-02T05:25:03,42.805,6.029,0.019,-0.016,-0.012,109.0,112.0,102.0,13.4,1505.3,327.5,-0.7,1.8,2470.233,13.33,0.024,130.1
2020-01-02T05:28:03,42.805,6.029,-0.002,-0.036,-0.046,107.0,109.0,104.0,13.3,1505.3,328.3,-0.7,1.8,2470.238,13.33,0.036,183.2
2020-01-02T05:31:03,42.805,6.029,0.034,-0.003,-0.015,108.0,108.0,103.0,13.4,1505.3,326.0,-0.7,1.9,2470.251,13.33,0.034,95.0
2020-01-02T05:34:03,42.805,6.029,0.017,-0.012,-0.032,108.0,108.0,104.0,13.4,1505.3,328.7,-0.7,1.8,2470.219,13.33,0.02,125.2
2020-01-02T05:37:03,42.805,6.029,0.003,-0.012,-0.015,108.0,108.0,103.0,13.4,1505.3,326.1,-0.7,1.8,2470.2,13.33,0.012,166.0
2020-01-02T05:40:03,42.805,6.029,0.026,-0.022,-0.019,107.0,107.0,103.0,13.3,1505.3,325.3,-0.7,1.8,2470.214,13.33,0.034,130.2
2020-01-02T05:43:03,42.805,6.029,0.006,-0.007,-0.043,108.0,109.0,104.0,13.3,1505.3,326.6,-0.7,1.9,2470.227,13.33,0.009,139.4
2020-01-02T05:46:03,42.805,6.029,0.015,-0.029,-0.021,108.0,110.0,104.0,13.4,1505.3,322.9,-0.7,1.8,2470.264,13.33,0.032,152.6
2020-01-02T05:49:03,42.805,6.029,0.018,-0.005,0.0,108.0,109.0,103.0,13.4,1505.3,328.1,-0.7,1.8,2470.231,13.33,0.018,105.5
2020-01-02T05:52:03,42.805,6.029,0.006,-0.024,-0.008,106.0,107.0,104.0,13.4,1505.3,326.8,-0.7,1.8,2470.205,13.33,0.024,166.0
2020-01-02T05:55:03,42.805,6.029,0.009,-0.017,-0.01,108.0,108.0,103.0,13.4,1505.3,328.4,-0.7,1.8,2470.271,13.33,0.019,152.1
2020-01-02T05:58:03,42.805,6.029,0.02,-0.022,-0.067,109.0,107.0,103.0,13.4,1505.3,323.3,-0.7,1.8,2470.242,13.33,0.029,137.7
2020-01-02T06:04:03,42.805,6.029,0.052,-0.025,0.015,107.0,110.0,103.0,13.4,1505.3,328.1,-0.7,1.8,2470.269,13.31,0.057,115.7
2020-01-02T06:07:03,42.805,6.029,0.032,-0.017,0.019,108.0,107.0,105.0,13.4,1505.3,323.7,-0.7,1.8,2470.263,13.31,0.036,118.0
2020-01-02T06:10:03,42.805,6.029,0.024,-0.011,-0.02,107.0,110.0,104.0,13.4,1505.3,323.5,-0.7,1.8,2470.268,13.32,0.026,114.6
2020-01-02T06:13:03,42.805,6.029,0.009,-0.015,-0.019,107.0,110.0,104.0,13.3,1505.3,323.7,-0.7,1.8,2470.246,13.32,0.017,149.0
2020-01-02T06:16:03,42.805,6.029,0.024,-0.034,0.0,108.0,109.0,104.0,13.4,1505.3,323.9,-0.7,1.8,2470.255,13.32,0.041,144.8
2020-01-02T06:19:03,42.805,6.029,0.02,-0.02,-0.019,108.0,109.0,104.0,13.4,1505.3,325.5,-0.7,1.9,2470.236,13.32,0.028,135.0
2020-01-02T06:22:03,42.805,6.029,0.002,-0.003,-0.008,108.0,108.0,103.0,13.4,1505.3,326.5,-0.7,1.8,2470.249,13.32,0.003,146.3
2020-01-02T06:25:03,42.805,6.029,0.002,-0.016,0.005,107.0,109.0,104.0,13.4,1505.3,326.6,-0.7,1.8,2470.254,13.32,0.016,172.9
2020-01-02T06:28:03,42.805,6.029,0.017,-0.033,-0.004,105.0,110.0,105.0,13.4,1505.3,327.4,-0.7,1.8,2470.281,13.32,0.037,152.7
2020-01-02T06:31:03,42.805,6.029,0.007,-0.026,-0.039,107.0,108.0,104.0,13.3,1505.3,325.5,-0.7,1.8,2470.23,13.32,0.026,164.9
2020-01-02T06:34:03,42.805,6.029,0.018,-0.025,-0.037,109.0,108.0,104.0,13.3,1505.3,324.9,-0.7,1.8,2470.273,13.32,0.03,144.2
2020-01-02T06:37:03,42.805,6.029,0.033,-0.026,-0.007,107.0,108.0,105.0,13.3,1505.3,323.3,-0.7,1.9,2470.21,13.32,0.042,128.2
2020-01-02T06:40:03,42.805,6.029,0.01,-0.026,-0.016,108.0,108.0,104.0,13.4,1505.3,324.4,-0.7,1.8,2470.278,13.32,0.027,159.0
2020-01-02T06:43:03,42.805,6.029,0.015,-0.012,-0.017,107.0,108.0,104.0,13.4,1505.3,327.0,-0.7,1.8,2470.234,13.32,0.019,128.7
2020-01-02T06:46:03,42.805,6.029,0.036,-0.029,-0.03,107.0,108.0,103.0,13.3,1505.3,328.3,-0.7,1.8,2470.235,13.32,0.046,128.9
2020-01-02T06:49:03,42.805,6.029,0.041,-0.034,-0.016,108.0,108.0,103.0,13.3,1505.3,322.9,-0.7,1.9,2470.263,13.32,0.053,129.7
2020-01-02T06:52:03,42.805,6.029,0.034,-0.001,-0.045,108.0,108.0,103.0,13.4,1505.3,326.9,-0.7,1.9,2470.226,13.32,0.034,91.7
2020-01-02T06:58:02,42.805,6.029,0.003,-0.035,-0.016,108.0,107.0,103.0,13.4,1505.2,323.6,-0.7,1.8,2470.251,13.3,0.035,175.1
2020-01-02T07:04:03,42.805,6.029,0.007,-0.028,0.0,107.0,109.0,104.0,13.4,1505.2,326.7,-0.8,1.8,2470.327,13.3,0.028,166.0
2020-01-02T07:07:03,42.805,6.029,0.014,-0.029,-0.012,107.0,109.0,104.0,13.4,1505.3,324.2,-0.7,1.8,2470.327,13.31,0.032,154.2
2020-01-02T07:10:03,42.805,6.029,0.021,-0.044,-0.005,107.0,109.0,103.0,13.3,1505.3,328.1,-0.7,1.8,2470.307,13.31,0.048,154.5
2020-01-02T07:13:03,42.805,6.029,0.002,-0.03,-0.045,107.0,107.0,103.0,13.4,1505.3,328.1,-0.7,1.8,2470.308,13.32,0.03,176.2
2020-01-02T07:16:03,42.805,6.029,0.015,-0.027,-0.015,107.0,107.0,103.0,13.3,1505.3,327.6,-0.7,1.8,2470.288,13.32,0.03,150.9
2020-01-02T07:19:03,42.805,6.029,0.019,-0.036,-0.023,109.0,107.0,103.0,13.4,1505.3,324.9,-0.7,1.8,2470.263,13.32,0.04,152.2
2020-01-02T07:22:03,42.805,6.029,0.032,-0.047,-0.017,107.0,108.0,103.0,13.3,1505.3,323.8,-0.7,1.9,2470.309,13.32,0.056,145.8
2020-01-02T07:25:03,42.805,6.029,0.028,-0.029,-0.023,107.0,107.0,104.0,13.4,1505.3,323.6,-0.7,1.9,2470.26,13.32,0.04,136.0
2020-01-02T07:28:03,42.805,6.029,0.02,-0.037,-0.025,108.0,109.0,103.0,13.4,1505.3,323.5,-0.7,1.8,2470.3,13.32,0.042,151.6
2020-01-02T07:31:03,42.805,6.029,-0.002,-0.044,-0.037,107.0,107.0,103.0,13.4,1505.3,326.7,-0.7,1.8,2470.305,13.32,0.044,182.6
2020-01-02T07:34:03,42.805,6.029,0.005,-0.031,-0.027,108.0,108.0,105.0,13.4,1505.3,326.1,-0.7,1.8,2470.231,13.32,0.031,170.8
2020-01-02T07:37:03,42.805,6.029,0.006,-0.035,-0.003,107.0,108.0,103.0,13.4,1505.3,327.5,-0.7,1.8,2470.27,13.32,0.035,170.3
2020-01-02T07:40:03,42.805,6.029,0.015,-0.036,-0.033,107.0,106.0,103.0,13.4,1505.3,325.6,-0.7,1.8,2470.324,13.32,0.039,157.4
2020-01-02T07:43:03,42.805,6.029,0.014,-0.04,-0.044,108.0,109.0,104.0,13.3,1505.3,324.5,-0.7,1.8,2470.237,13.32,0.042,160.7
2020-01-02T07:46:03,42.805,6.029,0.009,-0.059,-0.05,108.0,108.0,104.0,13.4,1505.3,325.9,-0.7,1.8,2470.287,13.32,0.059,171.3
2020-01-02T07:49:03,42.805,6.029,-0.012,-0.047,-0.027,107.0,110.0,104.0,13.4,1505.3,324.7,-0.7,1.8,2470.266,13.32,0.048,194.3
2020-01-02T07:52:03,42.805,6.029,0.003,-0.023,-0.027,107.0,107.0,103.0,13.4,1505.3,327.2,-0.7,1.8,2470.248,13.32,0.023,172.6
2020-01-02T07:55:03,42.805,6.029,-0.004,-0.031,-0.009,108.0,107.0,104.0,13.4,1505.3,327.4,-0.7,1.8,2470.246,13.32,0.031,187.3
2020-01-02T07:58:03,42.805,6.029,0.014,-0.047,-0.025,108.0,108.0,103.0,13.4,1505.3,325.9,-0.7,1.8,2470.274,13.32,0.049,163.4
2020-01-02T08:04:03,42.805,6.029,0.03,-0.041,-0.02,109.0,108.0,105.0,13.4,1505.2,324.5,-0.8,1.8,2470.262,13.3,0.05,143.8
2020-01-02T08:07:03,42.805,6.029,0.001,-0.056,0.0,108.0,108.0,104.0,13.4,1505.3,326.9,-0.7,1.9,2470.305,13.31,0.056,179.0
2020-01-02T08:10:03,42.805,6.029,-0.004,-0.037,-0.015,108.0,108.0,105.0,13.4,1505.3,326.9,-0.7,1.9,2470.275,13.31,0.037,186.2
2020-01-02T08:13:03,42.805,6.029,0.002,-0.026,0.006,109.0,109.0,105.0,13.3,1505.3,328.1,-0.7,1.9,2470.305,13.32,0.026,175.6
2020-01-02T08:16:03,42.805,6.029,0.009,-0.029,-0.007,106.0,108.0,105.0,13.4,1505.3,323.4,-0.7,1.8,2470.288,13.32,0.03,162.8
2020-01-02T08:19:03,42.805,6.029,-0.011,-0.041,-0.037,108.0,109.0,104.0,13.3,1505.3,325.7,-0.7,1.8,2470.32,13.32,0.042,195.0
2020-01-02T08:22:03,42.805,6.029,0.006,-0.059,-0.027,109.0,109.0,104.0,13.3,1505.3,324.9,-0.7,1.8,2470.308,13.32,0.059,174.2
2020-01-02T08:25:03,42.805,6.029,-0.018,-0.053,-0.039,110.0,110.0,105.0,13.4,1505.3,328.1,-0.7,1.9,2470.272,13.32,0.055,198.8
2020-01-02T08:28:03,42.805,6.029,-0.005,-0.045,-0.025,109.0,108.0,105.0,13.3,1505.3,328.1,-0.7,1.8,2470.312,13.32,0.045,186.3
2020-01-02T08:31:03,42.805,6.029,0.015,-0.045,-0.011,107.0,108.0,104.0,13.4,1505.3,326.1,-0.7,1.9,2470.315,13.32,0.047,161.6
2020-01-02T08:34:03,42.805,6.029,0.021,-0.035,-0.022,109.0,109.0,105.0,13.3,1505.3,322.7,-0.7,1.8,2470.307,13.32,0.04,149.0
2020-01-02T08:37:03,42.805,6.029,0.007,-0.023,0.003,108.0,111.0,105.0,13.4,1505.3,324.6,-0.7,1.8,2470.299,13.32,0.024,163.1
2020-01-02T08:40:03,42.805,6.029,0.01,-0.027,-0.033,109.0,110.0,106.0,13.4,1505.3,323.2,-0.7,1.8,2470.289,13.32,0.028,159.7
2020-01-02T08:43:03,42.805,6.029,-0.019,-0.045,-0.023,109.0,109.0,106.0,13.3,1505.3,327.4,-0.7,1.8,2470.358,13.32,0.048,202.9
2020-01-02T08:46:03,42.805,6.029,0.0,-0.036,-0.019,109.0,109.0,105.0,13.4,1505.3,326.5,-0.7,1.8,2470.311,13.32,0.036,180.0
2020-01-02T08:49:03,42.805,6.029,-0.024,-0.036,-0.054,110.0,109.0,105.0,13.3,1505.3,327.5,-0.7,1.8,2470.31,13.32,0.043,213.7
2020-01-02T08:52:03,42.805,6.029,0.008,-0.031,-0.051,109.0,109.0,105.0,13.4,1505.3,324.5,-0.8,1.8,2470.263,13.32,0.032,165.5
2020-01-02T08:55:03,42.805,6.029,0.015,-0.046,0.01,109.0,110.0,105.0,13.4,1505.3,324.6,-0.8,1.9,2470.281,13.32,0.048,161.9
2020-01-02T08:58:03,42.805,6.029,-0.006,-0.023,-0.036,110.0,110.0,105.0,13.4,1505.3,324.5,-0.7,1.8,2470.335,13.32,0.023,194.6
2020-01-02T09:04:03,42.805,6.029,-0.026,-0.03,-0.028,109.0,108.0,106.0,13.4,1505.2,326.6,-0.8,1.8,2470.345,13.3,0.039,220.9
2020-01-02T09:10:02,42.805,6.029,-0.025,-0.025,-0.03,109.0,110.0,105.0,13.4,1505.2,324.0,-0.8,1.8,2470.38,13.3,0.035,225.0
2020-01-02T09:13:03,42.805,6.029,-0.033,-0.022,-0.022,109.0,109.0,106.0,13.4,1505.3,326.4,-0.8,1.8,2470.407,13.31,0.039,236.3
2020-01-02T09:16:03,42.805,6.029,-0.04,-0.031,-0.049,109.0,109.0,105.0,13.4,1505.3,324.8,-0.7,1.8,2470.395,13.31,0.05,232.2
2020-01-02T09:19:03,42.805,6.029,-0.059,-0.001,-0.028,109.0,109.0,106.0,13.4,1505.3,327.5,-0.7,1.8,2470.336,13.32,0.059,269.0
2020-01-02T09:22:03,42.805,6.029,-0.016,-0.017,-0.01,110.0,109.0,106.0,13.4,1505.3,325.6,-0.7,1.9,2470.336,13.32,0.023,223.3
2020-01-02T09:25:03,42.805,6.029,-0.02,-0.01,-0.026,110.0,110.0,106.0,13.3,1505.3,327.1,-0.8,1.8,2470.359,13.32,0.022,243.4
2020-01-02T09:28:03,42.805,6.029,-0.046,-0.042,-0.03,110.0,109.0,107.0,13.4,1505.3,324.5,-0.7,1.8,2470.338,13.32,0.062,227.6
2020-01-02T09:31:03,42.805,6.029,-0.011,-0.025,0.024,109.0,109.0,105.0,13.3,1505.3,324.5,-0.7,1.9,2470.371,13.32,0.027,203.7
2020-01-02T09:34:03,42.805,6.029,-0.003,-0.011,-0.021,110.0,110.0,106.0,13.4,1505.3,328.1,-0.7,1.8,2470.39,13.32,0.011,195.3
2020-01-02T09:37:03,42.805,6.029,-0.018,-0.022,-0.006,109.0,109.0,105.0,13.3,1505.3,327.8,-0.7,1.9,2470.351,13.32,0.028,219.3
2020-01-02T09:40:03,42.805,6.029,-0.036,-0.019,-0.017,110.0,111.0,105.0,13.3,1505.3,328.1,-0.7,1.8,2470.379,13.32,0.04,242.2
2020-01-02T09:43:03,42.805,6.029,-0.071,-0.006,-0.001,109.0,109.0,105.0,13.4,1505.3,326.3,-0.7,1.8,2470.361,13.32,0.071,265.2
2020-01-02T09:46:03,42.805,6.029,-0.028,0.001,-0.023,109.0,111.0,105.0,13.4,1505.3,327.8,-0.7,1.8,2470.414,13.32,0.028,272.0
2020-01-02T09:49:03,42.805,6.029,-0.019,-0.014,-0.022,108.0,108.0,105.0,13.4,1505.3,325.1,-0.7,1.9,2470.387,13.32,0.023,233.6
2020-01-02T09:52:03,42.805,6.029,-0.023,-0.015,-0.024,111.0,109.0,105.0,13.4,1505.3,326.6,-0.7,1.8,2470.358,13.32,0.027,236.9
2020-01-02T09:55:03,42.805,6.029,-0.046,0.002,-0.039,108.0,108.0,104.0,13.3,1505.3,323.1,-0.7,1.8,2470.402,13.32,0.046,272.5
2020-01-02T09:58:03,42.805,6.029,-0.038,0.008,-0.011,108.0,109.0,106.0,13.4,1505.3,325.2,-0.8,1.8,2470.392,13.32,0.038,281.9
2020-01-02T10:04:03,42.805,6.029,-0.035,-0.017,-0.005,108.0,108.0,103.0,13.3,1505.2,323.5,-0.8,1.8,2470.42,13.3,0.038,244.1
2020-01-02T10:07:03,42.805,6.029,-0.025,-0.019,-0.008,109.0,109.0,104.0,13.3,1505.3,324.4,-0.7,1.8,2470.404,13.31,0.031,232.8
2020-01-02T10:10:03,42.805,6.029,-0.044,-0.009,0.001,107.0,109.0,105.0,13.4,1505.3,327.7,-0.7,1.9,2470.384,13.32,0.044,258.4
2020-01-02T10:13:03,42.805,6.029,-0.05,-0.015,-0.039,106.0,110.0,104.0,13.3,1505.3,326.6,-0.7,1.8,2470.392,13.32,0.052,253.3
2020-01-02T10:16:03,42.805,6.029,-0.029,-0.011,-0.027,107.0,108.0,104.0,13.4,1505.3,325.8,-0.7,1.8,2470.401,13.32,0.031,249.2